1513274400.21,17524,7.0,71916.0,-11.67,-38.49,-38.11,0,*69
1513274401.5,17525,7.0,71918.3,-11.67,-38.67,-38.23,0,*65
1513274402.77,17526,7.0,71908.5,-11.65,-38.49,-37.93,0,*6C
1513274404.04,17527,7.0,71910.3,-11.67,-38.61,-37.93,0,*65
1513274405.27,17528,7.0,71912.5,-11.65,-38.67,-38.05,0,*6E
1513274406.54,17529,7.0,71912.5,-11.67,-38.85,-38.23,0,*65
1513274407.76,17530,7.0,71912.3,-11.65,-38.85,-38.05,0,*6B
1513274409.05,17531,7.0,71910.5,-11.67,-39.03,-38.23,0,*63
1513274410.31,17532,7.0,71918.8,-11.65,-39.09,-38.29,0,*62
1513274411.6,17533,7.0,71918.3,-11.67,-39.23,-38.29,0,*69
1513274412.87,17534,7.0,71918.8,-11.65,-39.23,-38.29,0,*6C
1513274414.14,17535,7.0,71916.0,-11.67,-39.09,-37.93,0,*69
1513274415.37,17536,7.0,71922.5,-11.65,-39.09,-37.87,0,*6D
1513274416.62,17537,7.0,71924.3,-11.65,-39.09,-37.93,0,*69
1513274417.84,17538,7.0,71922.8,-11.65,-39.09,-37.75,0,*6E
1513274419.1,17539,7.0,71920.0,-11.65,-39.29,-37.93,0,*65
1513274420.35,17540,7.0,71924.3,-11.65,-39.29,-37.87,0,*6E
1513274421.62,17541,7.0,71930.5,-11.65,-39.23,-37.63,0,*6F
1513274422.86,17542,7.0,71928.5,-11.65,-39.29,-37.75,0,*61
1513274424.13,17543,7.0,71922.0,-11.65,-39.41,-37.93,0,*66
1513274425.37,17544,7.0,71912.0,-11.65,-39.47,-37.93,0,*67
1513274426.59,17545,7.0,71914.0,-11.61,-39.35,-37.87,0,*62
1513274427.84,17546,7.0,71904.3,-11.65,-39.59,-37.87,0,*6F
1513274429.1,17547,7.0,71910.3,-11.65,-39.79,-37.87,0,*6C
1513274430.35,17548,7.0,71912.0,-11.65,-39.59,-37.75,0,*6C
1513274431.63,17549,7.0,71908.8,-11.65,-39.59,-37.51,0,*6B
1513274432.9,17550,7.0,71910.8,-11.67,-39.65,-37.63,0,*6F
1513274434.19,17551,7.0,71908.3,-11.67,-39.97,-37.69,0,*69
1513274435.49,17552,7.0,71908.3,-11.67,-39.79,-37.63,0,*60
1513274436.73,17553,7.0,71914.3,-11.67,-39.65,-37.45,0,*68
1513274437.95,17554,7.0,71912.5,-11.65,-39.85,-37.45,0,*63
1513274439.22,17555,7.0,71912.3,-11.67,-39.79,-37.45,0,*63
1513274440.49,17556,7.0,71916.0,-11.67,-39.59,-37.27,0,*66
1513274441.74,17557,7.0,71918.0,-11.65,-39.59,-37.15,0,*64
1513274442.99,17558,7.0,71920.0,-11.65,-39.65,-37.09,0,*69
1513274444.24,17559,7.0,71926.3,-11.65,-39.59,-36.97,0,*61
1513274445.54,17560,7.0,71922.8,-11.67,-39.59,-36.91,0,*6F
1513274446.76,17561,7.0,71924.0,-11.65,-39.47,-36.73,0,*6F
1513274448.03,17562,7.0,71920.3,-11.67,-39.47,-36.61,0,*6D
1513274449.29,17563,7.0,71920.8,-11.65,-39.41,-36.37,0,*6B
1513274450.52,17564,7.0,71920.5,-11.65,-39.47,-36.43,0,*69
1513274451.78,17565,7.0,71918.0,-11.67,-39.47,-36.61,0,*6A
1513274453.04,17566,7.0,71908.0,-11.65,-39.59,-36.43,0,*64
1513274454.31,17567,7.0,71910.8,-11.65,-39.59,-36.37,0,*66
1513274455.53,17568,7.0,71908.8,-11.65,-39.47,-36.31,0,*60
1513274456.75,17569,7.0,71920.0,-11.65,-39.65,-36.31,0,*61
1513274457.97,17570,7.0,71914.5,-11.65,-39.65,-36.31,0,*69
1513274459.23,17571,7.0,71912.3,-11.65,-39.59,-36.31,0,*67
1513274460.45,17572,7.0,71916.0,-11.65,-39.65,-36.31,0,*6B
1513274461.7,17573,7.0,71916.0,-11.65,-39.79,-36.19,0,*6D
1513274462.94,17574,7.0,71924.3,-11.65,-39.65,-36.13,0,*6D
1513274464.19,17575,7.0,71916.8,-11.65,-39.65,-36.13,0,*6C
1513274465.43,17576,7.0,71920.3,-11.65,-39.97,-36.19,0,*68
1513274466.64,17577,7.0,71912.8,-11.65,-40.03,-36.19,0,*6A
1513274467.88,17578,7.0,71912.5,-11.65,-39.97,-36.19,0,*66
1513274469.14,17579,7.0,71914.3,-11.67,-39.97,-36.19,0,*65
1513274470.38,17580,7.0,71914.3,-11.67,-40.03,-36.01,0,*69
1513274471.64,17581,7.0,71918.5,-11.65,-39.85,-35.95,0,*64
1513274472.94,17582,7.0,71916.0,-11.67,-39.79,-35.83,0,*61
1513274474.19,17583,7.0,71918.8,-11.65,-39.59,-35.59,0,*67
1513274475.47,17584,7.0,71916.3,-11.67,-39.59,-35.59,0,*62
1513274476.72,17585,7.0,71918.5,-11.65,-39.59,-35.47,0,*6E
1513274477.97,17586,7.0,71918.8,-11.65,-39.79,-35.59,0,*60
1513274479.25,17587,7.0,71922.5,-11.67,-39.79,-35.59,0,*63
1513274480.49,17588,7.0,71920.5,-11.65,-39.65,-35.41,0,*6A
1513274481.76,17589,7.0,71920.8,-11.67,-39.65,-35.41,0,*69
1513274483.04,17590,7.0,71916.8,-11.67,-39.59,-35.17,0,*6D
1513274484.29,17591,7.0,71924.0,-11.65,-39.79,-35.29,0,*61
1513274485.54,17592,7.0,71922.5,-11.65,-39.41,-35.01,0,*63
1513274486.8,17593,7.0,71920.5,-11.65,-39.29,-35.07,0,*6A
1513274488.07,17594,7.0,71926.8,-11.65,-39.29,-35.07,0,*6D
1513274489.36,17595,7.0,71916.5,-11.67,-39.23,-34.83,0,*69
1513274490.6,17596,7.0,71924.3,-11.65,-39.23,-34.71,0,*65
1513274491.87,17597,7.0,71920.3,-11.65,-39.03,-34.53,0,*66
1513274493.14,17598,7.0,71924.3,-11.65,-39.03,-34.65,0,*6C
1513274494.38,17599,7.0,71920.8,-11.65,-39.09,-34.53,0,*62
1513274495.65,17600,7.0,71932.0,-11.65,-38.91,-34.53,0,*61
1513274496.92,17601,7.0,71930.8,-11.65,-39.03,-34.53,0,*6A
1513274498.17,17602,7.0,71928.3,-11.65,-39.09,-34.53,0,*63
1513274499.42,17603,7.0,71928.8,-11.65,-39.09,-34.65,0,*67
1513274500.69,17604,7.0,71926.5,-11.65,-39.23,-34.53,0,*6D
1513274501.97,17605,7.0,71936.5,-11.67,-39.03,-34.31,0,*68
1513274503.23,17606,7.0,71936.0,-11.65,-38.91,-34.31,0,*63
1513274504.47,17607,7.0,71928.5,-11.65,-38.85,-34.19,0,*6D
1513274505.71,17608,7.0,71922.3,-11.65,-38.67,-34.13,0,*64
1513274506.95,17609,7.0,71924.5,-11.67,-38.85,-34.07,0,*6E
1513274508.19,17610,7.0,71934.3,-11.65,-38.79,-34.07,0,*67
1513274509.46,17611,7.0,71934.8,-11.67,-38.91,-34.13,0,*67
1513274510.72,17612,7.0,71936.8,-11.65,-38.91,-34.19,0,*6C
1513274511.96,17613,7.0,71936.5,-11.65,-38.79,-33.95,0,*68
1513274513.19,17614,7.0,71934.3,-11.61,-38.73,-33.89,0,*6C
1513274514.43,17615,7.0,71934.0,-11.61,-38.73,-34.01,0,*6A
1513274515.67,17616,7.0,71928.8,-11.65,-38.79,-34.07,0,*61
1513274516.89,17617,7.0,71928.3,-11.65,-38.85,-34.07,0,*63
1513274518.13,17618,7.0,71930.8,-11.61,-38.91,-34.07,0,*6D
1513274519.36,17619,7.0,71934.3,-11.61,-39.03,-34.25,0,*66
1513274520.62,17620,7.0,71930.5,-11.65,-39.03,-34.19,0,*67
1513274521.83,17621,7.0,71928.5,-11.65,-38.85,-34.07,0,*66
1513274523.1,17622,7.0,71930.3,-11.65,-38.67,-33.89,0,*68
1513274524.33,17623,7.0,71928.8,-11.65,-38.67,-33.95,0,*64
1513274525.6,17624,7.0,71930.0,-11.65,-38.49,-33.73,0,*67
1513274526.84,17625,7.0,71930.5,-11.65,-38.61,-33.61,0,*6F
1513274528.14,17626,7.0,71932.0,-11.67,-38.49,-33.73,0,*67
1513274529.38,17627,7.0,71930.5,-11.65,-38.49,-33.55,0,*60
1513274530.65,17628,7.0,71928.3,-11.65,-38.79,-33.89,0,*6D
1513274531.87,17629,7.0,71928.3,-11.65,-38.85,-33.95,0,*62
1513274533.13,17630,7.0,71928.8,-11.65,-38.91,-33.89,0,*62
1513274534.4,17631,7.0,71928.0,-11.65,-38.91,-33.89,0,*63
1513274535.64,17632,7.0,71930.5,-11.65,-38.85,-33.89,0,*65
1513274536.93,17633,7.0,71934.0,-11.67,-38.79,-33.73,0,*60
1513274538.2,17634,7.0,71928.3,-11.67,-38.79,-33.55,0,*63
1513274539.47,17635,7.0,71932.5,-11.65,-38.79,-33.61,0,*67
1513274540.73,17636,7.0,71930.5,-11.67,-38.67,-33.55,0,*6E
1513274541.97,17637,7.0,71928.8,-11.65,-38.61,-33.43,0,*6C
1513274543.27,17638,7.0,71932.3,-11.67,-38.49,-33.43,0,*6B
1513274544.57,17639,7.0,71930.3,-11.67,-38.49,-33.43,0,*6A
1513274545.82,17640,7.0,71930.5,-11.65,-38.61,-33.43,0,*6C
1513274547.1,17641,7.0,71924.0,-11.65,-38.49,-33.43,0,*67
1513274548.37,17642,7.0,71924.5,-11.67,-38.49,-33.37,0,*65
1513274549.64,17643,7.0,71920.3,-11.67,-38.11,-33.21,0,*6E
1513274550.92,17644,7.0,71916.8,-11.67,-38.11,-33.09,0,*63
1513274552.21,17645,7.0,71914.5,-11.67,-38.11,-33.09,0,*62
1513274553.5,17646,7.0,71916.8,-11.67,-38.23,-33.09,0,*60
1513274554.76,17647,7.0,71916.8,-11.67,-38.11,-33.03,0,*6A
1513274556.01,17648,7.0,71918.8,-11.67,-38.05,-32.91,0,*6A
1513274557.27,17649,7.0,71918.3,-11.67,-37.93,-32.91,0,*6B
1513274558.57,17650,7.0,71914.3,-11.71,-37.99,-32.97,0,*68
1513274559.83,17651,7.0,71920.3,-11.69,-37.99,-32.97,0,*60
1513274561.08,17652,7.0,71920.8,-11.69,-37.81,-32.91,0,*6C
1513274562.33,17653,7.0,71920.0,-11.69,-37.81,-32.91,0,*6D
1513274563.61,17654,7.0,71926.0,-11.69,-37.81,-32.85,0,*6F
1513274564.86,17655,7.0,71924.3,-11.69,-37.75,-32.85,0,*65
1513274566.13,17656,7.0,71924.8,-11.69,-37.69,-32.85,0,*6B
1513274567.37,17657,7.0,71924.0,-11.69,-37.69,-32.69,0,*68
1513274568.59,17658,7.0,71926.3,-11.69,-37.57,-32.69,0,*6A
1513274569.84,17659,7.0,71930.3,-11.69,-37.51,-32.69,0,*6D
1513274571.09,17660,7.0,71930.3,-11.69,-37.39,-32.69,0,*69
1513274572.33,17661,7.0,71926.8,-11.69,-37.39,-32.51,0,*63
1513274573.58,17662,7.0,71924.5,-11.69,-37.39,-32.51,0,*60
1513274574.8,17663,7.0,71930.3,-11.69,-37.15,-32.39,0,*61
1513274576.05,17664,7.0,71930.3,-11.69,-37.21,-32.39,0,*61
1513274577.31,17665,7.0,71926.3,-11.69,-37.21,-32.51,0,*6E
1513274578.56,17666,7.0,71924.3,-11.69,-37.21,-32.39,0,*63
1513274579.78,17667,7.0,71924.5,-11.69,-37.15,-32.51,0,*6B
1513274581.0,17668,7.0,71920.0,-11.69,-37.15,-32.39,0,*6A
1513274582.22,17669,7.0,71920.5,-11.69,-37.15,-32.51,0,*65
1513274583.48,17670,7.0,71922.8,-11.71,-37.15,-32.51,0,*64
1513274584.69,17671,7.0,71922.3,-11.69,-37.03,-32.35,0,*69
1513274585.94,17672,7.0,71922.3,-11.71,-36.97,-32.39,0,*63
1513274587.19,17673,7.0,71920.8,-11.71,-36.97,-32.23,0,*69
1513274588.46,17674,7.0,71922.5,-11.69,-36.61,-32.07,0,*68
1513274589.74,17675,7.0,71920.3,-11.71,-36.67,-32.07,0,*66
1513274591.01,17676,7.0,71926.3,-11.71,-36.79,-32.35,0,*6B
1513274592.25,17677,7.0,71922.3,-11.69,-36.79,-32.35,0,*63
1513274593.49,17678,7.0,71924.5,-11.69,-36.79,-32.39,0,*60
1513274594.73,17679,7.0,71924.3,-11.69,-36.79,-32.35,0,*6D
1513274596.0,17680,7.0,71920.3,-11.71,-36.61,-32.23,0,*6C
1513274597.27,17681,7.0,71922.5,-11.71,-36.61,-32.23,0,*6D
1513274598.51,17682,7.0,71922.8,-11.69,-36.61,-32.35,0,*60
1513274599.78,17683,7.0,71922.3,-11.71,-36.61,-32.35,0,*68
1513274601.04,17684,7.0,71920.5,-11.71,-36.67,-32.51,0,*6B
1513274602.27,17685,7.0,71920.3,-11.73,-36.67,-32.57,0,*6E
1513274603.52,17686,7.0,71918.8,-11.71,-36.43,-32.51,0,*6F
1513274604.77,17687,7.0,71916.0,-11.71,-36.43,-32.35,0,*6C
1513274606.05,17688,7.0,71920.8,-11.71,-36.49,-32.51,0,*6B
1513274607.3,17689,7.0,71920.3,-11.71,-36.43,-32.69,0,*6B
1513274608.55,17690,7.0,71930.8,-11.71,-36.43,-32.69,0,*63
1513274609.8,17691,7.0,71920.3,-11.71,-36.07,-32.23,0,*6C
1513274611.07,17692,7.0,71910.8,-11.71,-35.89,-32.19,0,*63
1513274612.35,17693,7.0,71918.8,-11.71,-35.89,-32.19,0,*62
1513274613.59,17694,7.0,71914.8,-11.69,-36.01,-32.19,0,*6F
1513274614.81,17695,7.0,71912.5,-11.69,-35.89,-32.35,0,*63
1513274616.06,17696,7.0,71912.5,-11.71,-36.01,-32.39,0,*66
1513274617.31,17697,7.0,71918.8,-11.71,-35.89,-32.39,0,*64
1513274618.53,17698,7.0,71916.3,-11.69,-35.89,-32.39,0,*62
1513274619.75,17699,7.0,71922.5,-11.69,-35.89,-32.35,0,*6F
1513274621.04,17700,7.0,71920.3,-11.67,-35.95,-32.45,0,*6A
1513274622.28,17701,7.0,71920.3,-11.71,-36.01,-32.57,0,*61
1513274623.53,17702,7.0,71924.5,-11.69,-36.01,-32.75,0,*6B
1513274624.78,17703,7.0,71926.0,-11.69,-36.07,-32.75,0,*6C
1513274626.0,17704,7.0,71926.5,-11.69,-35.89,-32.69,0,*63
1513274627.24,17705,7.0,71928.3,-11.69,-35.89,-32.75,0,*6F
1513274628.47,17706,7.0,71932.0,-11.69,-35.89,-32.69,0,*61
1513274629.69,17707,7.0,71934.8,-11.69,-35.89,-32.69,0,*60
1513274630.94,17708,7.0,71938.5,-11.69,-35.89,-32.75,0,*62
1513274632.21,17709,7.0,71938.3,-11.67,-35.83,-32.69,0,*6A
1513274633.5,17710,7.0,71938.0,-11.67,-35.83,-32.79,0,*63
1513274634.8,17711,7.0,71934.5,-11.67,-35.83,-32.79,0,*62
1513274636.04,17712,7.0,71938.3,-11.67,-36.01,-32.91,0,*6E
1513274637.31,17713,7.0,71934.5,-11.67,-36.31,-33.09,0,*6C
1513274638.55,17714,7.0,71938.3,-11.67,-36.43,-33.37,0,*63
1513274639.82,17715,7.0,71934.8,-11.67,-36.55,-33.43,0,*66
1513274641.06,17716,7.0,71936.5,-11.67,-36.55,-33.55,0,*62
1513274642.33,17717,7.0,71934.5,-11.69,-36.49,-33.43,0,*67
1513274643.6,17718,7.0,71928.3,-11.69,-36.61,-33.49,0,*68
1513274644.85,17719,7.0,71920.0,-11.69,-36.43,-33.43,0,*63
1513274646.11,17720,7.0,71928.5,-11.69,-36.49,-33.49,0,*69
1513274647.38,17721,7.0,71936.5,-11.69,-36.49,-33.49,0,*68
1513274648.65,17722,7.0,71932.8,-11.69,-36.37,-33.43,0,*68
1513274649.93,17723,7.0,71930.3,-11.69,-36.25,-33.27,0,*68
1513274651.19,17724,7.0,71926.0,-11.67,-36.19,-33.27,0,*6E
1513274652.43,17725,7.0,71926.8,-11.67,-36.31,-33.21,0,*63
1513274653.73,17726,7.0,71920.3,-11.67,-36.13,-33.27,0,*66
1513274654.95,17727,7.0,71922.5,-11.65,-36.31,-33.37,0,*64
1513274656.19,17728,7.0,71920.0,-11.67,-36.31,-33.37,0,*69
1513274657.43,17729,7.0,71912.8,-11.67,-36.01,-33.21,0,*6C
1513274658.65,17730,7.0,71910.0,-11.65,-36.19,-33.37,0,*68
1513274659.89,17731,7.0,71900.0,-11.67,-36.31,-33.37,0,*61
1513274661.11,17732,7.0,71898.3,-11.65,-36.43,-33.55,0,*61
1513274662.39,17733,7.0,71904.3,-11.67,-36.61,-33.61,0,*65
1513274663.63,17734,7.0,71898.5,-11.65,-36.61,-33.55,0,*67
1513274664.92,17735,7.0,71902.3,-11.67,-36.61,-33.61,0,*63
1513274666.2,17736,7.0,71904.3,-11.67,-36.61,-33.61,0,*60
1513274667.44,17737,7.0,71906.3,-11.67,-36.43,-33.55,0,*66
1513274668.73,17738,7.0,71902.3,-11.67,-36.61,-33.61,0,*6E
1513274670.02,17739,7.0,71908.3,-11.67,-36.61,-33.61,0,*6F
1513274671.28,17740,7.0,71916.8,-11.67,-36.61,-33.55,0,*66
1513274672.56,17741,7.0,71916.8,-11.67,-36.61,-33.61,0,*60
1513274673.85,17742,7.0,71916.8,-11.67,-36.79,-33.73,0,*69
1513274675.1,17743,7.0,71914.3,-11.65,-36.73,-33.73,0,*60
1513274676.36,17744,7.0,71904.5,-11.69,-36.79,-33.77,0,*65
1513274677.62,17745,7.0,71902.0,-11.69,-36.79,-33.77,0,*64
1513274678.89,17746,7.0,71900.3,-11.69,-36.61,-33.49,0,*63
1513274680.16,17747,7.0,71896.3,-11.69,-36.61,-33.49,0,*62
1513274681.4,17748,7.0,71886.3,-11.69,-36.43,-33.27,0,*65
1513274682.65,17749,7.0,71888.0,-11.69,-36.43,-33.27,0,*64
1513274683.91,17750,7.0,71886.5,-11.67,-36.13,-33.03,0,*61
1513274685.17,17751,7.0,71884.8,-11.67,-36.13,-33.03,0,*60
1513274686.47,17752,7.0,71884.0,-11.67,-35.95,-32.85,0,*61
1513274687.74,17753,7.0,71890.3,-11.65,-35.83,-32.85,0,*65
1513274689.04,17754,7.0,71892.8,-11.67,-35.83,-32.79,0,*63
1513274690.3,17755,7.0,71900.0,-11.67,-36.13,-32.91,0,*6E
1513274691.52,17756,7.0,71898.5,-11.65,-36.01,-32.91,0,*6C
1513274692.81,17757,7.0,71912.8,-11.67,-35.83,-32.85,0,*63
1513274694.11,17758,7.0,71912.8,-11.67,-35.95,-32.85,0,*6B
1513274695.37,17759,7.0,71914.8,-11.65,-36.13,-32.85,0,*65
1513274696.64,17760,7.0,71914.3,-11.65,-35.83,-32.85,0,*65
1513274697.89,17761,7.0,71912.8,-11.65,-36.01,-32.85,0,*6D
1513274699.15,17762,7.0,71914.0,-11.65,-36.13,-32.85,0,*6D
1513274700.4,17763,7.0,71912.8,-11.65,-35.95,-32.91,0,*64
1513274701.69,17764,7.0,71910.8,-11.67,-35.83,-32.85,0,*63
1513274702.96,17765,7.0,71916.5,-11.65,-35.83,-32.79,0,*63
1513274704.24,17766,7.0,71922.8,-11.65,-35.95,-32.85,0,*64
1513274705.51,17767,7.0,71926.5,-11.65,-35.95,-32.85,0,*65
1513274706.78,17768,7.0,71930.3,-11.65,-35.95,-32.79,0,*69
1513274708.05,17769,7.0,71926.8,-11.65,-35.83,-32.63,0,*64
1513274709.31,17770,7.0,71936.0,-11.65,-35.65,-32.45,0,*60
1513274710.55,17771,7.0,71938.5,-11.67,-35.47,-32.35,0,*64
1513274711.79,17772,7.0,71936.0,-11.65,-35.59,-32.45,0,*6D
1513274713.03,17773,7.0,71936.5,-11.65,-35.65,-32.51,0,*66
1513274714.29,17774,7.0,71934.8,-11.67,-35.59,-32.45,0,*69
1513274715.51,17775,7.0,71932.5,-11.65,-35.59,-32.51,0,*6F
1513274716.76,17776,7.0,71934.3,-11.61,-35.41,-32.45,0,*64
1513274718.05,17777,7.0,71934.5,-11.67,-35.65,-32.63,0,*61
1513274719.3,17778,7.0,71936.3,-11.65,-35.41,-32.29,0,*64
1513274720.52,17779,7.0,71942.5,-11.65,-35.01,-32.01,0,*6B
1513274721.77,17780,7.0,71938.8,-11.61,-34.95,-32.13,0,*66
1513274723.0,17781,7.0,71936.0,-11.61,-35.13,-32.07,0,*6D
1513274724.21,17782,7.0,71934.3,-11.61,-35.17,-32.13,0,*6F
1513274725.42,17783,7.0,71934.5,-11.61,-35.13,-32.23,0,*69
1513274726.64,17784,7.0,71932.0,-11.61,-35.13,-32.39,0,*65
1513274727.87,17785,7.0,71930.3,-11.61,-35.17,-32.45,0,*6B
1513274729.09,17786,7.0,71928.0,-11.61,-35.13,-32.39,0,*67
1513274730.35,17787,7.0,71928.0,-11.61,-34.95,-32.29,0,*68
1513274731.6,17788,7.0,71928.8,-11.61,-34.95,-32.23,0,*6D
1513274732.84,17789,7.0,71930.3,-11.61,-35.01,-32.45,0,*60
1513274734.09,17790,7.0,71930.0,-11.61,-34.95,-32.39,0,*6F
1513274735.3,17791,7.0,71928.3,-11.65,-34.89,-32.35,0,*6B
1513274736.57,17792,7.0,71926.8,-11.65,-34.65,-32.29,0,*67
1513274737.82,17793,7.0,71926.3,-11.65,-34.65,-32.13,0,*6F
1513274739.05,17794,7.0,71922.0,-11.61,-34.41,-31.91,0,*63
1513274740.27,17795,7.0,71922.8,-11.61,-34.47,-32.13,0,*6D
1513274741.57,17796,7.0,71924.5,-11.59,-34.53,-32.19,0,*6A
1513274742.79,17797,7.0,71922.3,-11.61,-34.59,-32.23,0,*63
1513274744.04,17798,7.0,71916.8,-11.61,-34.59,-32.29,0,*66
1513274745.28,17799,7.0,71920.8,-11.61,-34.47,-32.29,0,*68
1513274746.49,17800,7.0,71926.3,-11.61,-34.41,-32.13,0,*68
1513274747.73,17801,7.0,71932.0,-11.61,-34.31,-32.13,0,*6E
1513274748.98,17802,7.0,71928.3,-11.61,-34.07,-31.95,0,*65
1513274750.25,17803,7.0,71930.0,-11.61,-34.01,-31.95,0,*62
1513274751.49,17804,7.0,71934.5,-11.61,-34.13,-32.07,0,*6E
1513274752.7,17805,7.0,71936.5,-11.61,-34.25,-32.13,0,*6F
1513274753.95,17806,7.0,71940.0,-11.61,-34.07,-32.19,0,*66
1513274755.17,17807,7.0,71938.0,-11.61,-34.07,-32.23,0,*6E
1513274756.44,17808,7.0,71926.5,-11.61,-34.01,-32.07,0,*61
1513274757.68,17809,7.0,71926.3,-11.61,-33.83,-32.07,0,*6D
1513274758.89,17810,7.0,71920.0,-11.65,-33.95,-32.13,0,*63
1513274760.16,17811,7.0,71932.3,-11.59,-33.77,-32.01,0,*62
1513274761.43,17812,7.0,71928.3,-11.61,-33.73,-31.95,0,*60
1513274762.7,17813,7.0,71926.0,-11.61,-33.73,-31.95,0,*61
1513274763.94,17814,7.0,71928.3,-11.61,-33.89,-32.23,0,*6D
1513274765.18,17815,7.0,71928.8,-11.61,-33.89,-32.23,0,*6C
1513274766.41,17816,7.0,71926.8,-11.61,-33.61,-32.01,0,*69
1513274767.65,17817,7.0,71928.0,-11.61,-33.67,-32.07,0,*68
1513274768.89,17818,7.0,71934.3,-11.61,-33.73,-32.13,0,*67
1513274770.19,17819,7.0,71940.3,-11.59,-33.49,-31.91,0,*6D
1513274771.43,17820,7.0,71944.5,-11.61,-33.55,-32.07,0,*6D
1513274772.64,17821,7.0,71956.0,-11.61,-33.67,-32.23,0,*6B
1513274773.93,17822,7.0,71952.5,-11.59,-33.61,-32.07,0,*63
1513274775.18,17823,7.0,71952.5,-11.61,-33.37,-31.91,0,*66
1513274776.45,17824,7.0,71950.8,-11.61,-33.49,-31.95,0,*6C
1513274777.68,17825,7.0,71952.5,-11.65,-33.43,-32.01,0,*6D
1513274778.96,17826,7.0,71952.5,-11.61,-33.49,-31.95,0,*6E
1513274780.16,17827,7.0,71956.3,-11.61,-33.15,-31.79,0,*64
1513274781.37,17828,7.0,71952.5,-11.61,-33.03,-31.79,0,*6C
1513274782.61,17829,7.0,71962.3,-11.61,-33.03,-31.51,0,*67
1513274783.82,17830,7.0,71958.3,-11.61,-33.15,-31.67,0,*6D
1513274785.05,17831,7.0,71952.0,-11.61,-33.15,-31.57,0,*6F
1513274786.29,17832,7.0,71952.5,-11.61,-33.03,-31.57,0,*6B
1513274787.5,17833,7.0,71956.3,-11.61,-33.03,-31.67,0,*69
1513274788.78,17834,7.0,71956.3,-11.59,-33.09,-31.73,0,*6A
1513274790.07,17835,7.0,71956.0,-11.59,-32.97,-31.61,0,*6E
1513274791.31,17836,7.0,71950.3,-11.59,-32.91,-31.45,0,*6D
1513274792.58,17837,7.0,71942.0,-11.59,-32.75,-31.33,0,*67
1513274793.86,17838,7.0,71932.8,-11.59,-32.79,-31.45,0,*65
1513274795.12,17839,7.0,71934.0,-11.59,-32.91,-31.61,0,*64
1513274796.39,17840,7.0,71932.0,-11.59,-32.75,-31.29,0,*6C
1513274797.61,17841,7.0,71918.5,-11.57,-32.57,-31.17,0,*6E
1513274798.85,17842,7.0,71922.3,-11.57,-32.51,-30.95,0,*60
1513274800.08,17843,7.0,71922.0,-11.57,-32.39,-30.95,0,*6F
1513274801.32,17844,7.0,71920.5,-11.59,-32.51,-31.01,0,*64
1513274802.56,17845,7.0,71910.0,-11.59,-32.39,-31.01,0,*6B
1513274803.8,17846,7.0,71896.3,-11.55,-32.35,-31.05,0,*6C
1513274805.04,17847,7.0,71902.8,-11.55,-32.51,-31.05,0,*6F
1513274806.28,17848,7.0,71912.8,-11.57,-32.75,-31.29,0,*6A
1513274807.5,17849,7.0,71918.5,-11.57,-32.57,-31.17,0,*66
1513274808.76,17850,7.0,71922.5,-11.55,-32.45,-31.05,0,*6C
1513274810.0,17851,7.0,71912.3,-11.55,-32.51,-31.05,0,*68
1513274811.24,17852,7.0,71922.3,-11.55,-32.51,-31.05,0,*6B
1513274812.46,17853,7.0,71946.3,-11.57,-32.39,-30.83,0,*69
1513274813.73,17854,7.0,71914.8,-11.55,-32.13,-30.51,0,*6B
1513274815.03,17855,7.0,71918.3,-11.55,-31.85,-30.17,0,*64
1513274816.3,17856,7.0,71940.5,-11.55,-31.79,-30.17,0,*64
1513274817.57,17857,7.0,71948.0,-11.51,-31.79,-30.17,0,*61
1513274818.8,17858,7.0,71900.0,-11.49,-31.73,-30.11,0,*6B
1513274820.1,17859,7.0,71910.3,-11.47,-31.61,-30.01,0,*66
1513274821.39,17860,7.0,71892.0,-11.51,-31.57,-29.89,0,*66
1513274822.66,17861,7.0,71898.8,-11.49,-31.57,-30.01,0,*66
1513274823.9,17862,7.0,71890.5,-11.49,-31.57,-29.83,0,*67
1513274825.2,17863,7.0,71932.0,-11.47,-31.73,-30.01,0,*6C
1513274826.46,17864,7.0,71928.8,-11.47,-31.91,-30.11,0,*66
1513274827.7,17865,7.0,71938.0,-11.45,-31.73,-29.95,0,*6D
1513274828.97,17866,7.0,71940.3,-11.45,-31.95,-30.01,0,*63
1513274830.23,17867,7.0,71914.5,-11.47,-31.57,-29.79,0,*69
1513274831.44,17868,7.0,71910.3,-11.45,-31.45,-29.61,0,*6E
1513274832.66,17869,7.0,71914.5,-11.45,-31.45,-29.61,0,*6F
1513274833.89,17870,7.0,71926.5,-11.45,-31.39,-29.61,0,*6C
1513274835.11,17871,7.0,71908.0,-11.45,-31.45,-29.45,0,*60
1513274836.34,17872,7.0,71896.8,-11.45,-31.51,-29.57,0,*65
1513274837.58,17873,7.0,71888.5,-11.43,-31.33,-29.57,0,*66
1513274838.84,17874,7.0,71904.0,-11.43,-31.33,-29.39,0,*69
1513274840.1,17875,7.0,71912.0,-11.41,-31.23,-29.17,0,*67
1513274841.36,17876,7.0,71890.0,-11.43,-31.45,-29.39,0,*6A
1513274842.6,17877,7.0,71868.8,-11.41,-31.29,-29.35,0,*6F
1513274843.8,17878,7.0,71878.0,-11.41,-31.17,-29.07,0,*6C
1513274845.03,17879,7.0,71888.0,-11.41,-30.95,-28.97,0,*6E
1513274846.29,17880,7.0,71898.0,-11.39,-30.95,-28.79,0,*67
1513274847.58,17881,7.0,71902.3,-11.37,-30.89,-28.75,0,*69
1513274848.86,17882,7.0,71914.0,-11.37,-30.83,-28.63,0,*67
1513274850.1,17883,7.0,71918.5,-11.39,-30.89,-28.69,0,*68
1513274851.4,17884,7.0,71914.0,-11.37,-30.73,-28.63,0,*6E
1513274852.67,17885,7.0,71914.3,-11.39,-30.95,-28.63,0,*69
1513274853.94,17886,7.0,71906.5,-11.37,-31.01,-28.59,0,*61
1513274855.18,17887,7.0,71900.5,-11.39,-30.95,-28.69,0,*61
1513274856.47,17888,7.0,71906.0,-11.37,-30.55,-28.43,0,*64
1513274857.74,17889,7.0,71908.3,-11.37,-30.67,-28.47,0,*60
1513274859.0,17890,7.0,71900.8,-11.35,-30.89,-28.47,0,*6A
1513274860.24,17891,7.0,71902.3,-11.35,-30.67,-28.47,0,*6B
1513274861.48,17892,7.0,71906.3,-11.35,-30.67,-28.43,0,*6C
1513274862.75,17893,7.0,71906.3,-11.35,-30.51,-28.25,0,*68
1513274864.01,17894,7.0,71902.0,-11.35,-30.39,-28.25,0,*61
1513274865.25,17895,7.0,71896.5,-11.35,-30.39,-28.15,0,*63
1513274866.51,17896,7.0,71898.0,-11.35,-30.39,-28.25,0,*63
1513274867.78,17897,7.0,71898.8,-11.35,-30.55,-28.25,0,*68
1513274869.04,17898,7.0,71900.8,-11.35,-30.55,-28.25,0,*67
1513274870.3,17899,7.0,71898.5,-11.33,-30.77,-28.37,0,*63
1513274871.59,17900,7.0,71902.5,-11.33,-30.61,-28.25,0,*66
1513274872.86,17901,7.0,71894.8,-11.35,-30.61,-28.25,0,*61
1513274874.12,17902,7.0,71900.0,-11.33,-30.67,-28.43,0,*62
1513274875.39,17903,7.0,71918.0,-11.35,-30.55,-28.25,0,*64
1513274876.68,17904,7.0,71918.5,-11.33,-30.51,-28.21,0,*65
1513274877.97,17905,7.0,71924.0,-11.33,-30.61,-28.21,0,*67
1513274879.22,17906,7.0,71924.5,-11.35,-30.67,-28.25,0,*60
1513274880.48,17907,7.0,71922.8,-11.33,-30.45,-28.21,0,*63
1513274881.74,17908,7.0,71922.5,-11.33,-30.45,-28.09,0,*66
1513274883.0,17909,7.0,71926.5,-11.35,-30.39,-28.05,0,*66
1513274884.24,17910,7.0,71928.0,-11.35,-30.33,-28.05,0,*64
1513274885.46,17911,7.0,71926.3,-11.35,-30.27,-27.89,0,*6B
1513274886.68,17912,7.0,71924.5,-11.35,-30.27,-27.93,0,*63
1513274887.92,17913,7.0,71924.0,-11.33,-30.23,-27.71,0,*6C
1513274889.13,17914,7.0,71926.0,-11.35,-30.11,-27.71,0,*6C
1513274890.37,17915,7.0,71926.5,-11.35,-30.17,-27.77,0,*6D
1513274891.61,17916,7.0,71928.8,-11.33,-30.11,-27.89,0,*6F
1513274892.85,17917,7.0,71934.0,-11.33,-30.11,-27.67,0,*6E
1513274894.11,17918,7.0,71934.3,-11.33,-30.05,-27.55,0,*65
1513274895.35,17919,7.06,71938.5,-11.35,-29.95,-27.45,0,*62
1513274896.6,17920,7.0,71932.5,-11.35,-29.83,-27.23,0,*6F
1513274897.84,17921,7.0,71928.3,-11.35,-29.79,-27.23,0,*6B
1513274899.09,17922,7.0,71926.5,-11.35,-29.67,-27.23,0,*67
1513274900.31,17923,7.0,71930.5,-11.35,-29.67,-27.13,0,*65
1513274901.53,17924,7.0,71926.3,-11.35,-29.67,-27.13,0,*62
1513274902.8,17925,7.0,71924.3,-11.37,-29.79,-27.23,0,*6D
1513274904.07,17926,7.0,71926.5,-11.37,-29.67,-27.23,0,*61
1513274905.29,17927,7.0,71920.8,-11.35,-29.61,-27.07,0,*62
1513274906.54,17928,7.0,71912.5,-11.35,-29.51,-27.07,0,*6E
1513274907.78,17929,7.0,71922.8,-11.35,-29.45,-26.71,0,*6A
1513274909.07,17930,7.0,71922.5,-11.37,-29.29,-26.55,0,*6C